Location: Elliot Lake
(46.3862°N, 82.6509°W)
Time: 06:07:43
(UTC-05:00)

ISS - Visible Passes

Search period start: 23 February 2024 00:00
Search period end: 04 March 2024 00:00
Orbit: 414 x 417 km, 51.6° (Epoch: 23 February)

Date Brightness Start Highest point End Pass type
(mag) Time Alt. Az. Time Alt. Az. Time Alt. Az.
23 Feb -1.2 04:44:15 22° ENE 04:44:15 22° ENE 04:45:33 10° ENE visible
23 Feb -2.9 06:17:08 19° WNW 06:19:07 37° NNW 06:22:17 10° ENE visible
24 Feb -3.2 05:30:24 45° NNW 05:30:24 45° NNW 05:33:37 10° ENE visible
25 Feb -1.3 04:43:36 22° NE 04:43:36 22° NE 04:44:56 10° ENE visible
25 Feb -2.5 06:16:29 15° WNW 06:18:45 32° N 06:21:48 10° ENE visible
26 Feb -2.7 05:29:37 33° NNW 05:29:53 33° N 05:32:59 10° ENE visible
27 Feb -1.3 04:42:43 22° NE 04:42:43 22° NE 04:44:10 10° ENE visible
27 Feb -2.6 06:15:35 13° NW 06:18:14 34° N 06:21:20 10° ENE visible
28 Feb -2.5 05:28:39 29° NNW 05:29:18 32° N 05:32:22 10° ENE visible
29 Feb -1.4 04:41:42 23° NE 04:41:42 23° NE 04:43:24 10° ENE visible
29 Feb -3.0 06:14:34 12° WNW 06:17:31 47° NNE 06:20:47 10° E visible
01 Mar -2.7 05:27:36 30° NNW 05:28:34 38° NNE 05:31:44 10° E visible
02 Mar -1.7 04:40:38 26° NE 04:40:38 26° NE 04:42:38 10° ENE visible
02 Mar -3.8 06:13:30 12° WNW 06:16:33 84° NNE 06:19:54 10° ESE visible
03 Mar -3.4 05:26:34 38° NW 05:27:36 59° NNE 05:30:55 10° ESE visible
